Location: ?
(35.6144°N, 139.6873°E)
Time: 16:14:56
(UTC+00:00)

Tsikada Rocket - Pass Details

Date: 23 May 2024
Orbit: 959 x 1007 km, 82.9° (Epoch: 15 June)

Event Time Altitude Azimuth Distance (km) Brightness Sun altitude
Exits shadow 10:33:49 - 161° (SSE) 3,238 6.2 -9.3°
Reaches altitude 10° 10:35:23 10° 156° (SSE) 2,688 5.8 -9.6°
Maximum altitude 10:41:01 39° 89° (E) 1,406 4.5 -10.5°
Drops below altitude 10° 10:46:44 10° 23° (NNE) 2,727 6.5 -11.5°
Sets 10:49:24 0° 16° (NNE) 3,686 7.3 -11.9°
